This demonstration page uses our WeatherBlox Daily Observations layout. Learn more.

38.89511, -77.03637

Hourly Observations for September 26, 2015

Temp ( °F °C ) Dew Point ( °F °C ) Humidity (%) Winds ( mph kmh ) Pressure ( in mb ) Visibility ( mi km ) Precip ( " mm )
12:52 am 00:52 Cloudy 66 18.9 54 12.2 65 65 NE 10 17 30.29 1026 10 16.0934 0 0
1:52 am 01:52 Cloudy 66 19 55 13 68 68 NE 14 22 30.3 1026 10 16.0934 0 0
2:52 am 02:52 Cloudy 66 18.9 55 12.8 68 68 NNE 12 19 30.29 1026 10 16.0934 0 0
3:52 am 03:52 Cloudy 66 18.9 55 12.8 68 68 NE 14 22 30.29 1026 10 16.0934 0 0
4:52 am 04:52 Cloudy 65 18.3 55 12.8 70 70 NE 15 24 30.29 1026 10 16.0934 0 0
5:52 am 05:52 Cloudy 65 18.3 54 12.2 68 68 NE 12 19 30.3 1026 10 16.0934 0 0
6:52 am 06:52 Cloudy 65 18.3 54 12.2 68 68 NNE 9 15 30.31 1027 10 16.0934 0 0
7:52 am 07:52 Cloudy 65 18.3 54 12.2 68 68 NNE 9 15 30.32 1027 10 16.0934 0 0
8:52 am 08:52 Cloudy 65 18.3 54 12.2 68 68 NNE 13 20 30.33 1027 10 16.0934 0 0
9:52 am 09:52 Cloudy 67 19.4 55 12.8 66 66 NE 12 19 30.35 1028 10 16.0934 0 0
10:52 am 10:52 Cloudy 69 20.6 55 12.8 61 61 ENE 13 20 30.35 1028 10 16.0934 0 0
11:52 am 11:52 Cloudy 70 21.1 56 13.3 61 61 ENE 15 24 30.35 1028 9 14.48406 0 0
12:52 pm 12:52 Cloudy 72 22.2 56 13.3 57 57 ENE 14 22 30.35 1028 10 16.0934 0 0
1:52 pm 13:52 Cloudy 73 22.8 56 13.3 55 55 E 14 22 30.35 1028 10 16.0934 0 0
2:52 pm 14:52 Mostly Cloudy 73 22.8 55 12.8 53 53 ENE 21 33 30.33 1027 10 16.0934 0 0
3:52 pm 15:52 Cloudy 73 22.8 55 12.8 53 53 E 15 24 30.34 1028 10 16.0934 0 0
4:11 pm 16:11 Cloudy 73 23 55 13 53 53 E 13 20 30.33 1027 10 16.0934 0 0
4:52 pm 16:52 Mostly Cloudy 71 21.7 55 12.8 57 57 E 13 20 30.35 1028 10 16.0934 0 0
5:52 pm 17:52 Mostly Cloudy 70 21.1 53 11.7 55 55 E 15 24 30.36 1028 10 16.0934 0 0
6:52 pm 18:52 Cloudy 69 20.6 52 11.1 55 55 E 15 24 30.36 1028 10 16.0934 0 0
7:52 pm 19:52 Cloudy with Light Rain 67 19.4 53 11.7 61 61 ENE 13 20 30.38 1029 10 16.0934 0 0.0254
8:52 pm 20:52 Cloudy 66 18.9 55 12.8 68 68 ENE 12 19 30.38 1029 10 16.0934 0 0.0254
9:52 pm 21:52 Cloudy 66 18.9 54 12.2 65 65 E 10 17 30.39 1029 10 16.0934 0 0
10:52 pm 22:52 Cloudy 65 18.3 54 12.2 68 68 ENE 15 24 30.4 1029 10 16.0934 0 0
11:52 pm 23:52 Mostly Cloudy 65 18.3 54 12.2 68 68 NE 14 22 30.4 1029 10 16.0934 0 0

Powered by AerisWeather